Location: Prague
(50.0830°N, 14.4670°E)
Time: 14:03:51
(UTC+01:00)

NO-84 - Visible Passes

Search period start: 06 December 2021 00:00
Search period end: 16 December 2021 00:00
Orbit: 254 x 295 km, 55.0° (Epoch: 30 November)

Date Brightness Start Highest point End Pass type
(mag) Time Alt. Az. Time Alt. Az. Time Alt. Az.
06 Dec ? 17:34:18 10° SSW 17:36:21 26° SE 17:36:22 26° SE visible
07 Dec ? 17:29:58 10° SW 17:32:12 40° SE 17:32:34 37° ESE visible
08 Dec ? 17:25:10 10° SW 17:27:29 65° SSE 17:28:07 39° E visible
09 Dec ? 17:19:51 10° WSW 17:22:09 82° NNW 17:23:02 33° ENE visible
10 Dec ? 17:13:59 10° WSW 17:16:15 56° NNW 17:17:20 25° NE visible
11 Dec ? 17:07:34 10° W 17:09:46 41° NNW 17:11:02 20° NE visible
12 Dec ? 17:00:34 10° W 17:02:41 33° NNW 17:04:07 16° NE visible
13 Dec ? 16:52:57 10° WNW 16:55:00 28° NNW 16:56:37 13° NE visible
14 Dec ? 16:44:45 10° WNW 16:46:42 25° N 16:48:33 11° NE visible
14 Dec ? 18:17:57 10° NW 18:18:01 11° NW 18:18:01 11° NW visible
15 Dec ? 16:35:56 10° WNW 16:37:49 23° N 16:39:42 10° NE visible
15 Dec ? 18:08:58 10° NW 18:09:21 13° NW 18:09:21 13° NW visible
